SCP
0 0 0 0 0 0 0 0 0 0 0 0 0 0 0 0 0 0 0 0 0 0 0 0 0 0 0 0 0 0 0 0 0 0 0 0 0 0 0 0 0 0 0 0 0 0 0 0 0
0 0 0 0 0 0 0 0 0 0 0 0 0 0 0 0 0 0 0 0 0 0 0 0 0 0 0 0 0 0 0 0 0 0 0 0 0 0 0 0 0 0 0 0 0 0 0 0 0
0 0 0 0 0 0 0 0 0 0 0 0 0 0 0 0 0 0 0 0 0 0 0 0 0 0 0 0 0 0 0 0 0 0 0 0 0 0 0 0 0 0 0 0 0 0 0 0 0
0 0 0 0 0 0 0 0 0 0 0 0 0 0 0 0 0 0 0 0 0 0 0 0 0 0 0 0 0 0 0 0 0 0 0 0 0 0 0 0 0 0 0 0 0 0 0 0 0
0 0 0 0 0 0 0 0 0 0 0 0 0 0 0 0 0 0 0 0 0 0 0 0 0 0 0 0 0 0 0 0 0 0 0 0 0 0 0 0 0 0 0 0 0 0 0 0 0
0 0 0 0 0 0 0 0 0 0 0 0 0 0 0 0 0 0 0 0 0 0 0 0 0 0 0 0 0 0 0 0 0 0 0 0 0 0 0 0 0 0 0 0 0 0 0 0 0
0 0 0 0 0 0 0 0 0 0 0 0 0 0 0 0 0 0 0 0 0 0 0 0 0 0 0 0 0 0 0 0 0 0 0 0 0 0 0 0 0 0 0 0 0 0 0 0 0
0 0 0 0 0 0 0 0 0 0 0 0 0 0 0 0 0 0 0 0 0 0 0 0 0 0 0 0 0 0 0 0 0 0 0 0 0 0 0 0 0 0 0 0 0 0 0 0 0
0 0 0 0 0 0 0 0 0 0 0 0 0 0 0 0 0 0 0 0 0 0 0 0 0 0 0 0 0 0 0 0 0 0 0 0 0 0 0 0 0 0 0 0 0 0 0 0 0
0 0 0 0 0 0 0 0 0 0 0 0 0 0 0 0 0 0 0 0 0 0 0 0 0 0 0 0 0 0 0 0 0 0 0 0 0 0 0 0 0 0 0 0 0 0 0 0 0
0 0 0 0 0 0 0 0 0 0 0 0 0 0 0 0 0 0 0 0 0 0 0 0 0 0 0 0 0 0 0 0 0 0 0 0 0 0 0 0 0 0 0 0 0 0 0 0 0
0 0 0 0 0 0 0 0 0 0 0 0 0 0 0 0 0 0 0 0 0 0 0 0 0 0 0 0 0 0 0 0 0 0 0 0 0 0 0 0 0 0 0 0 0 0 0 0 0
0 0 0 0 0 0 0 0 0 0 0 0 0 0 0 0 0 0 0 0 0 0 0 0 0 0 0 0 0 0 0 0 0 0 0 0 0 0 0 0 0 0 0 0 0 0 0 0 0
0 0 0 0 0 0 0 0 0 0 0 0 0 0 0 0 0 0 0 0 0 0 0 0 0 0 0 0 0 0 0 0 0 0 0 0 0 0 0 0 0 0 0 0 0 0 0 0 0
0 0 0 0 0 0 0 0 0 0 0 0 0 0 0 0 0 0 0 0 0 0 0 0 0 0 0 0 0 0 0 0 0 0 0 0 0 0 0 0 0 0 0 0 0 0 0 0 0
0 0 0 0 0 0 0 0 0 0 0 0 0 0 0 0 0 0 0 0 0 0 0 0 0 0 0 0 0 0 0 0 0 0 0 0 0 0 0 0 0 0 0 0 0 0 0 0 0
0 0 0 0 0 0 0 0 0 0 0 0 0 0 0 0 0 0 0 0 0 0 0 0 0 0 0 0 0 0 0 0 0 0 0 0 0 0 0 0 0 0 0 0 0 0 0 0 0
0 0 0 0 0 0 0 0 0 0 0 0 0 0 0 0 0 0 0 0 0 0 0 0 0 0 0 0 0 0 0 0 0 0 0 0 0 0 0 0 0 0 0 0 0 0 0 0 0
0 0 0 0 0 0 0 0 0 0 0 0 0 0 0 0 0 0 0 0 0 0 0 0 0 0 0 0 0 0 0 0 0 0 0 0 0 0 0 0 0 0 0 0 0 0 0 0 0
0 0 0 0 0 0 0 0 0 0 0 0 0 0 0 0 0 0 0 0 0 0 0 0 0 0 0 0 0 0 0 0 0 0 0 0 0 0 0 0 0 0 0 0 0 0 0 0 0
0 0 0 0 0 0 0 0 0 0 0 0 0 0 0 0 0 0 0 0 0 0 0 0 0 0 0 0 0 0 0 0 0 0 0 0 0 0 0 0 0 0 0 0 0 0 0 0 0
0 0 0 0 0 0 0 0 0 0 0 0 0 0 0 0 0 0 0 0 0 0 0 0 0 0 0 0 0 0 0 0 0 0 0 0 0 0 0 0 0 0 0 0 0 0 0 0 0
0 0 0 0 0 0 0 0 0 0 0 0 0 0 0 0 0 0 0 0 0 0 0 0 0 0 0 0 0 0 0 0 0 0 0 0 0 0 0 0 0 0 0 0 0 0 0 0 0
0 0 0 0 0 0 0 0 0 0 0 0 0 0 0 0 0 0 0 0 0 0 0 0 0 0 0 0 0 0 0 0 0 0 0 0 0 0 0 0 0 0 0 0 0 0 0 0 0
0 0 0 0 0 0 0 0 0 0 0 0 0 0 0 0 0 0 0 0 0 0 0 0 0 0 0 0 0 0 0 0 0 0 0 0 0 0 0 0 0 0 0 0 0 0 0 0 0
0 0 0 0 0 0 0 0 0 0 0 0 0 0 0 0 0 0 0 0 0 0 0 0 0 0 0 0 0 0 0 0 0 0 0 0 0 0 0 0 0 0 0 0 0 0 0 0 0
0 0 0 0 0 0 0 0 0 0 0 0 0 0 0 0 0 0 0 0 0 0 0 0 0 0 0 0 0 0 0 0 0 0 0 0 0 0 0 0 0 0 0 0 0 0 0 0 0
0 0 0 0 0 0 0 0 0 0 0 0 0 0 0 0 0 0 0 0 0 0 0 0 0 0 0 0 0 0 0 0 0 0 0 0 0 0 0 0 0 0 0 0 0 0 0 0 0
0 0 0 0 0 0 0 0 0 0 0 0 0 0 0 0 0 0 0 0 0 0 0 0 0 0 0 0 0 0 0 0 0 0 0 0 0 0 0 0 0 0 0 0 0 0 0 0 0
0 0 0 0 0 0 0 0 0 0 0 0 0 0 0 0 0 0 0 0 0 0 0 0 0 0 0 0 0 0 0 0 0 0 0 0 0 0 0 0 0 0 0 0 0 0 0 0 0
Wind_Speed
1 2 3 4 6 6 8 5 3 5 4 2 2 3 3 2 1 5 6 5 6 7 7 8 8 9 9 10 10 10 9 9 9 9 9 8 8 8 8 7 6 5 5 4 4 4 4 4 4
2 3 4 5 7 8 6 6 7 5 4 5 3 2 3 4 5 7 6 5 6 7 7 7 9 9 10 10 10 10 10 9 8 8 8 9 8 8 7 7 7 6 5 5 4 4 4 4 4
3 3 5 5 7 8 4 5 6 5 5 4 4 2 2 5 6 6 6 7 7 8 7 9 9 9 9 10 10 10 10 10 10 9 9 9 9 8 8 8 8 7 7 6 5 4 4 4 3
4 5 5 7 10 6 2 4 6 8 6 3 4 5 4 4 3 6 8 8 8 8 8 10 9 10 10 9 10 10 10 10 10 10 10 9 9 9 9 8 8 8 8 7 6 5 4 3 3
4 5 7 8 9 4 4 3 6 8 7 5 5 5 6 5 5 8 8 8 8 8 8 9 10 10 10 10 9 9 9 10 10 10 10 10 9 9 9 9 9 8 8 8 7 6 6 5 3
5 5 8 11 10 5 5 5 6 7 6 6 6 6 6 6 8 8 8 8 8 8 8 9 10 10 10 10 10 9 9 9 9 10 10 9 9 9 9 9 8 8 8 8 8 7 7 6 5
6 6 7 7 7 7 5 6 8 7 7 6 5 6 8 9 8 8 8 8 7 7 7 7 8 8 9 10 10 10 9 9 9 9 9 9 9 9 9 9 8 8 8 8 7 7 6 6 6
4 5 6 7 8 6 5 5 3 6 5 4 4 5 7 11 9 8 8 7 7 7 6 6 6 6 6 7 10 10 10 9 9 9 9 8 8 8 8 8 8 8 7 7 7 7 6 5 5
4 7 8 7 7 5 6 6 4 1 5 4 2 1 5 13 11 10 9 7 7 6 6 5 6 5 5 6 7 7 8 8 6 6 6 4 4 4 5 7 8 7 7 7 6 6 5 4 3
7 9 7 3 3 3 5 5 6 6 7 6 5 5 8 12 12 12 10 9 8 7 6 5 5 5 5 4 4 4 4 4 4 3 4 3 3 3 3 5 6 6 5 5 5 5 3 3 2
8 8 5 4 2 2 4 4 4 7 8 8 9 11 12 13 12 12 11 9 8 7 6 5 5 4 4 3 3 2 2 3 3 4 3 3 2 2 2 2 2 2 3 2 3 2 2 2 2
6 6 4 3 3 3 4 4 5 8 4 1 5 10 14 14 14 12 11 10 8 7 7 6 5 4 4 3 3 2 2 2 2 3 3 2 2 2 2 2 2 2 2 2 2 2 3 3 3
9 5 5 4 3 3 4 6 5 7 5 2 5 10 13 14 13 11 9 9 8 8 7 6 5 5 4 3 2 2 2 2 2 2 2 2 1 1 1 1 2 2 2 2 2 3 3 3 3
6 7 5 5 6 4 6 7 7 8 6 6 8 11 12 13 12 11 10 10 9 8 8 6 6 5 4 3 2 2 2 1 1 1 2 2 1 1 1 1 2 2 2 2 2 3 3 3 3
4 5 7 8 8 5 5 10 13 9 7 9 10 10 11 11 11 12 11 10 9 9 8 7 6 5 4 3 3 2 1 1 1 1 1 2 1 1 1 1 1 2 2 2 3 3 3 3 3
5 7 8 7 7 6 9 12 7 7 10 11 10 10 11 11 12 11 11 10 9 9 8 7 5 5 4 3 2 2 1 1 1 1 1 1 1 2 1 1 1 2 2 2 2 3 3 3 4
8 9 9 7 7 6 11 10 4 5 9 10 10 10 11 11 11 11 11 10 9 9 8 7 6 6 5 4 3 2 2 1 1 0 0 0 1 1 1 2 2 2 2 2 3 3 4 4 5
9 9 8 8 6 8 11 12 7 6 8 10 10 10 10 11 12 11 10 10 9 8 8 8 7 6 5 4 3 2 2 1 1 1 0 1 1 2 2 1 3 3 2 2 3 4 4 4 5
5 7 7 4 3 7 11 13 12 9 10 11 11 11 11 11 10 9 10 9 9 8 8 8 7 6 5 4 3 3 2 2 1 1 1 1 1 2 2 2 2 3 3 3 4 4 5 4 4
7 8 7 3 2 5 8 14 13 12 13 12 12 11 11 11 10 9 9 10 10 9 9 8 7 7 6 4 3 2 2 2 1 1 2 2 2 2 2 3 3 3 3 4 4 4 4 4 4
12 12 9 5 2 4 7 11 10 9 10 10 10 11 11 11 11 11 11 10 10 9 9 7 8 7 6 4 3 2 2 2 2 2 2 2 3 3 3 4 4 4 4 4 5 4 5 5 5
11 8 7 6 6 4 4 7 5 6 7 8 9 10 10 9 10 10 10 10 10 9 8 8 7 6 6 5 4 4 3 3 3 2 2 3 4 4 4 4 5 5 5 5 5 5 5 6 6
4 4 6 6 6 6 6 8 6 5 7 8 8 8 7 7 8 9 9 9 9 8 7 6 6 6 5 5 4 4 4 3 2 3 4 4 4 4 5 5 5 6 5 6 6 6 6 6 7
8 7 5 3 4 8 10 10 8 5 6 4 5 6 6 6 7 7 7 7 7 6 6 6 6 5 5 5 4 5 5 4 4 4 4 4 4 4 5 6 6 7 6 7 7 7 8 8 8
9 8 5 6 7 9 5 9 8 2 3 4 3 3 4 5 6 7 7 7 6 6 6 5 6 5 5 5 5 5 5 5 5 5 5 5 5 5 6 6 7 7 7 8 8 8 9 9 10
13 11 8 8 7 5 6 10 4 0 1 2 2 2 3 4 5 5 5 6 6 6 6 6 6 5 4 4 5 5 5 4 4 5 5 6 5 6 7 8 8 9 9 9 8 8 9 9 10
11 10 4 1 0 4 7 6 4 3 3 3 3 3 3 4 4 4 4 5 5 5 5 5 5 5 4 4 4 5 5 5 5 6 6 6 6 6 8 8 9 9 9 9 9 8 10 10 10
5 7 6 6 7 8 7 7 5 6 5 4 4 3 3 3 3 4 4 4 4 4 4 4 4 4 4 4 3 3 4 5 5 6 7 7 8 7 8 9 9 9 10 10 10 10 10 11 11
8 8 7 6 5 6 6 4 2 4 4 3 3 2 2 3 3 3 3 3 3 3 3 3 3 3 3 3 3 4 4 4 5 5 6 7 7 8 8 9 10 10 10 10 10 11 11 12 12
8 9 9 7 6 5 5 2 5 2 2 1 2 2 2 2 2 2 2 3 2 2 2 2 2 2 2 3 3 4 4 4 5 6 7 7 8 8 9 9 10 10 10 10 11 12 12 12 12
Wind_Direction
221 213 211 211 213 222 226 200 191 163 170 141 130 173 181 143 72 84 94 112 115 119 114 113 93 93 92 90 88 87 87 87 87 88 87 88 89 86 82 81 84 89 91 95 93 95 100 95 97
210 197 205 215 229 219 207 192 191 171 123 126 136 160 157 106 62 95 118 112 118 113 109 103 95 93 94 92 89 86 85 85 86 88 87 86 83 82 80 76 75 77 79 80 81 81 83 87 89
181 224 214 212 227 232 190 165 174 137 138 160 143 122 84 101 108 109 110 126 124 112 106 95 90 92 93 93 91 88 85 82 81 82 84 83 80 78 76 72 70 67 67 69 69 68 72 80 83
193 192 214 230 223 227 222 138 148 155 158 172 162 135 107 68 85 107 123 130 122 112 106 96 89 91 91 92 91 89 86 83 81 78 78 79 78 75 71 68 66 64 61 61 61 60 58 62 66
215 208 209 222 225 210 207 174 174 177 167 165 176 143 120 99 103 121 128 127 121 111 101 100 90 90 89 89 90 90 87 84 81 77 75 74 74 72 67 64 63 62 59 58 59 57 54 51 49
194 214 220 221 212 199 198 189 190 192 171 163 174 148 117 124 132 129 128 126 118 111 105 103 92 87 87 86 86 87 86 84 81 77 74 73 72 71 68 63 61 59 58 57 56 54 51 47 41
212 214 230 226 213 206 189 182 199 191 185 173 174 155 133 146 137 137 131 123 116 113 110 105 105 98 87 81 81 82 83 82 80 78 74 72 71 69 66 62 59 57 56 56 53 51 48 45 40
238 225 222 217 214 203 165 171 194 204 174 129 191 182 154 150 145 140 131 122 114 113 112 109 105 100 99 93 80 78 78 79 80 78 74 73 76 72 64 60 54 52 51 50 47 44 40 37 38
220 230 223 212 211 189 165 177 156 164 148 155 183 34 101 136 149 148 143 137 129 120 116 114 110 103 97 91 88 86 82 77 83 84 77 77 75 73 69 54 49 49 49 45 41 36 30 20 42
209 229 226 214 217 175 171 191 166 176 182 181 172 137 136 151 164 167 165 160 154 144 130 121 117 111 104 95 94 87 83 81 72 74 75 72 69 59 60 71 54 50 48 47 38 29 25 358 1
209 232 220 207 206 190 180 181 183 200 205 205 193 169 161 170 177 180 177 170 163 151 139 132 125 120 113 104 96 88 83 80 74 66 72 80 76 66 52 57 57 46 35 28 24 11 12 360 358
211 223 223 197 173 196 198 188 204 223 233 193 197 169 169 179 184 186 182 174 163 157 151 144 139 131 119 109 102 99 97 86 76 65 51 63 70 52 45 40 33 23 21 7 357 348 355 343 341
215 207 215 218 205 215 216 225 240 237 227 196 168 172 182 186 188 186 181 173 168 165 159 153 149 142 133 121 111 101 91 89 87 69 52 45 62 52 43 36 29 18 8 359 346 341 343 334 333
211 213 214 219 215 215 229 240 237 236 203 192 186 189 192 191 189 182 182 181 178 172 166 158 158 149 142 138 129 112 105 98 79 69 55 40 51 49 25 29 18 7 1 353 336 336 328 322 319
181 209 225 224 221 215 223 240 229 225 203 203 201 198 197 197 193 193 190 188 182 175 168 163 161 158 153 145 139 130 125 119 95 81 63 45 31 25 19 4 359 356 345 341 335 335 323 320 311
187 211 223 200 205 200 218 245 214 202 204 211 208 202 201 201 203 201 195 191 184 177 172 166 166 168 163 153 150 144 142 134 123 102 70 43 24 360 341 341 344 335 329 327 327 324 322 315 305
201 217 220 194 193 193 218 247 201 185 210 218 214 210 207 204 206 202 197 193 188 183 176 173 172 171 166 158 155 151 151 156 171 181 75 6 340 325 328 334 323 316 317 321 320 321 317 311 307
201 213 215 211 178 206 224 241 228 210 226 229 221 215 212 210 207 199 196 192 188 185 179 177 173 172 165 162 158 155 164 179 197 211 240 286 308 317 314 307 314 315 307 312 314 314 311 305 304
217 212 219 203 163 222 238 251 249 235 231 232 227 218 214 214 204 194 192 187 184 182 181 180 177 173 170 170 175 181 183 194 205 218 244 265 290 305 302 297 303 304 302 303 303 304 302 304 311
212 218 223 203 176 246 264 264 258 243 234 232 229 223 218 213 200 191 189 186 186 183 183 182 182 179 181 183 185 196 194 219 233 238 245 261 276 285 288 291 290 291 287 286 292 301 299 304 308
220 227 227 218 194 231 283 265 234 225 224 225 229 229 225 214 204 192 188 187 186 185 186 185 185 184 185 182 172 166 195 212 219 227 242 261 277 275 276 282 284 284 281 281 284 287 287 294 294
222 221 221 213 227 233 253 273 227 208 212 217 221 220 218 209 204 194 188 187 187 186 182 185 184 185 185 185 193 199 217 232 247 253 259 268 269 272 273 274 277 277 277 277 278 280 284 283 281
196 162 189 210 231 255 222 252 252 198 225 223 213 209 208 200 196 191 188 186 185 180 177 181 181 184 186 195 201 214 229 243 251 256 261 270 270 271 273 275 276 276 276 277 279 279 277 274 274
143 133 129 177 222 245 222 228 251 205 224 214 197 197 195 189 184 182 179 179 177 172 173 177 179 184 189 200 210 222 233 243 252 258 265 269 271 270 271 274 273 273 274 274 275 274 271 269 269
182 170 174 196 211 232 178 223 247 229 227 230 208 189 178 172 174 173 172 175 172 171 174 180 183 187 193 205 219 230 238 244 249 261 265 272 274 275 275 274 272 273 273 273 274 273 269 266 265
195 201 201 210 219 194 183 229 237 271 234 233 209 174 155 157 163 166 167 170 168 171 175 182 189 193 199 213 229 238 241 247 255 261 267 269 272 275 277 274 272 273 273 272 271 272 270 266 265
182 210 234 226 273 241 212 228 253 213 202 189 178 160 151 147 148 154 157 161 162 167 175 184 191 199 207 220 229 238 245 252 259 264 266 268 270 275 274 275 274 273 273 271 271 268 271 271 266
217 171 175 198 205 228 222 222 208 176 182 171 164 156 137 128 134 140 146 151 154 158 170 183 193 204 214 225 234 246 252 259 265 268 272 273 274 274 275 276 275 275 274 273 271 273 271 271 269
174 185 198 196 234 232 229 196 126 176 171 171 162 134 122 124 133 138 141 144 145 148 159 177 193 204 217 233 246 256 262 267 268 270 274 278 279 277 276 277 277 276 277 277 274 273 274 272 272
216 200 190 196 202 227 247 173 97 137 147 155 138 120 112 111 120 127 131 133 137 145 157 173 201 220 236 248 258 265 267 270 272 277 282 283 283 282 279 278 277 278 279 279 277 276 273 270 270